User: anonymous   Login
Location: Columbia
(38.9520°N, 92.3340°W)
Time: 01:43:26
(UTC-06:00)
Language:

FENGYUN 3A - Orbit

View from above orbital plane
View from above orbital plane
View from above satellite
View from above satellite

Ground track
Ground track

The orbit data is extracted from the following two-line orbital elements,

1 32958U 08026A   17056.85667806  .00000005  00000-0  21726-4 0  9995
2 32958  98.4215  91.0294 0008490 242.3116 117.7203 14.19650783453549
Epoch (UTC): 25 February 2017 20:33:36
Eccentricity: 0.0008490
inclination: 98.4215°
perigee height: 820 km
apogee height: 832 km
right ascension of ascending node: 91.0294°
argument of perigee: 242.3116°
revolutions per day: 14.19650783
mean anomaly at epoch: 117.7203°
orbit number at epoch: 45354

The dashed part of the orbit path shows where the satellite is in the earth's shadow,  

DLR